• In Hungary
  • List of Countries
  • For 7 days
  • Water Temperature
  • Satellite Maps
  • Weather Map
  • News
  • Weather Widgets
  • user-avatar
    Login

    Hourly Weather Przybedza

    Today, 21 May, Monday

    Time Temperature Precipitation Wind Pressure Humidity
    00:00 +9°C° 0 mm 2 mps 728 mmHg 89%
    01:00 +9°C° 0 mm 2 mps 728 mmHg 90%
    02:00 +9°C° 0 mm 1 mps 728 mmHg 91%
    03:00 +9°C° 0 mm 1 mps 728 mmHg 91%
    04:00 +9°C° 0 mm 1 mps 728 mmHg 91%
    05:00 +9°C° 0 mm 2 mps 728 mmHg 85%
    06:00 +12°C° 0 mm 2 mps 728 mmHg 78%
    07:00 +13°C° 0 mm 3 mps 728 mmHg 72%
    08:00 +16°C° 0 mm 3 mps 728 mmHg 65%
    09:00 +17°C° 0 mm 4 mps 727 mmHg 58%
    10:00 +19°C° 0 mm 4 mps 727 mmHg 51%
    11:00 +19°C° 0 mm 4 mps 727 mmHg 49%
    12:00 +20°C° 0 mm 4 mps 727 mmHg 47%
    13:00 +21°C° 0 mm 4 mps 726 mmHg 46%
    14:00 +20°C° 0 mm 4 mps 726 mmHg 48%
    15:00 +20°C° 0 mm 4 mps 726 mmHg 51%
    16:00 +20°C° 0 mm 4 mps 725 mmHg 54%
    17:00 +18°C° 0.2 mm 4 mps 725 mmHg 62%
    18:00 +17°C° 0.2 mm 3 mps 724 mmHg 70%
    19:00 +14°C° 0.2 mm 3 mps 724 mmHg 78%
    20:00 +13°C° 0 mm 3 mps 724 mmHg 82%
    21:00 +13°C° 0 mm 2 mps 724 mmHg 85%
    22:00 +12°C° 0 mm 2 mps 724 mmHg 89%
    23:00 +10°C° 0 mm 2 mps 724 mmHg 90%

    Tomorrow, 22 May, Tuesday

    Time Temperature Precipitation Wind Pressure Humidity
    00:00 +10°C° 0 mm 2 mps 724 mmHg 91%
    01:00 +10°C° 0 mm 1 mps 724 mmHg 92%
    02:00 +10°C° 0 mm 1 mps 724 mmHg 92%
    03:00 +10°C° 0 mm 1 mps 723 mmHg 92%
    04:00 +10°C° 0 mm 1 mps 723 mmHg 92%
    05:00 +12°C° 0 mm 1 mps 723 mmHg 86%
    06:00 +14°C° 0 mm 1 mps 724 mmHg 80%
    07:00 +16°C° 0 mm 1 mps 724 mmHg 74%
    08:00 +19°C° 0.1 mm 1 mps 724 mmHg 68%
    09:00 +21°C° 0.1 mm 1 mps 724 mmHg 62%
    10:00 +21°C° 0.1 mm 2 mps 724 mmHg 56%
    11:00 +23°C° 0.3 mm 2 mps 724 mmHg 56%
    12:00 +23°C° 0.3 mm 2 mps 724 mmHg 56%
    13:00 +24°C° 0.3 mm 2 mps 724 mmHg 56%
    14:00 +23°C° 0.4 mm 2 mps 724 mmHg 58%
    15:00 +23°C° 0.4 mm 2 mps 724 mmHg 61%
    16:00 +23°C° 0.4 mm 2 mps 724 mmHg 63%
    17:00 +22°C° 0.1 mm 1 mps 724 mmHg 69%
    18:00 +20°C° 0.1 mm 1 mps 724 mmHg 75%
    19:00 +19°C° 0.1 mm 1 mps 724 mmHg 80%
    20:00 +18°C° 0.3 mm 1 mps 724 mmHg 83%
    21:00 +16°C° 0.3 mm 1 mps 724 mmHg 86%
    22:00 +15°C° 0.3 mm 1 mps 724 mmHg 89%
    23:00 +15°C° 0.2 mm 1 mps 724 mmHg 90%

    Day after tomorrow, 23 May, Wednesday

    Time Temperature Precipitation Wind Pressure Humidity
    00:00 +15°C° 0.2 mm 1 mps 724 mmHg 91%
    01:00 +14°C° 0.2 mm 1 mps 724 mmHg 91%
    02:00 +14°C° 0.1 mm 1 mps 724 mmHg 92%
    03:00 +14°C° 0.1 mm 1 mps 724 mmHg 92%
    04:00 +14°C° 0.1 mm 1 mps 724 mmHg 92%
    05:00 +16°C° 0.1 mm 1 mps 725 mmHg 88%
    06:00 +18°C° 0.1 mm 1 mps 725 mmHg 85%
    07:00 +20°C° 0.1 mm 1 mps 726 mmHg 82%
    08:00 +21°C° 0.6 mm 1 mps 726 mmHg 77%
    09:00 +22°C° 0.6 mm 1 mps 726 mmHg 73%
    10:00 +23°C° 0.6 mm 1 mps 726 mmHg 69%
    11:00 +23°C° 0.6 mm 1 mps 726 mmHg 66%
    12:00 +24°C° 0.6 mm 1 mps 726 mmHg 63%
    13:00 +25°C° 0.6 mm 1 mps 726 mmHg 61%
    14:00 +25°C° 1.1 mm 1 mps 726 mmHg 63%
    15:00 +24°C° 1.1 mm 1 mps 726 mmHg 64%
    16:00 +24°C° 1.1 mm 1 mps 726 mmHg 66%
    17:00 +23°C° 0.5 mm 1 mps 726 mmHg 71%
    18:00 +21°C° 0.5 mm 1 mps 726 mmHg 76%
    19:00 +20°C° 0.5 mm 1 mps 725 mmHg 81%
    20:00 +19°C° 0.3 mm 1 mps 726 mmHg 84%
    21:00 +18°C° 0.3 mm 1 mps 726 mmHg 87%
    22:00 +16°C° 0.3 mm 1 mps 726 mmHg 89%
    23:00 +15°C° 0.1 mm 1 mps 726 mmHg 90%

    24 May, Thursday

    Time Temperature Precipitation Wind Pressure Humidity
    00:00 +15°C° 0.1 mm 1 mps 726 mmHg 91%
    01:00 +15°C° 0.1 mm 1 mps 726 mmHg 91%
    02:00 +14°C° 0 mm 1 mps 726 mmHg 92%
    03:00 +14°C° 0 mm 1 mps 726 mmHg 93%
    04:00 +14°C° 0 mm 1 mps 726 mmHg 93%
    05:00 +15°C° 0 mm 1 mps 726 mmHg 90%
    06:00 +18°C° 0 mm 1 mps 726 mmHg 88%
    07:00 +20°C° 0 mm 1 mps 726 mmHg 85%
    08:00 +20°C° 0.1 mm 2 mps 726 mmHg 78%
    09:00 +23°C° 0.1 mm 2 mps 727 mmHg 71%
    10:00 +24°C° 0.1 mm 2 mps 727 mmHg 64%
    11:00 +25°C° 0.7 mm 3 mps 726 mmHg 65%
    12:00 +25°C° 0.7 mm 3 mps 726 mmHg 66%
    13:00 +25°C° 0.7 mm 3 mps 726 mmHg 67%
    14:00 +25°C° 0.6 mm 3 mps 726 mmHg 69%
    15:00 +24°C° 0.6 mm 3 mps 725 mmHg 71%
    16:00 +24°C° 0.6 mm 3 mps 725 mmHg 73%
    17:00 +22°C° 0.6 mm 3 mps 725 mmHg 78%
    18:00 +20°C° 0.6 mm 3 mps 725 mmHg 82%
    19:00 +19°C° 0.6 mm 2 mps 725 mmHg 87%
    20:00 +18°C° 0.2 mm 2 mps 725 mmHg 89%
    21:00 +17°C° 0.2 mm 2 mps 725 mmHg 91%
    22:00 +16°C° 0.2 mm 2 mps 725 mmHg 94%
    23:00 +16°C° 0 mm 2 mps 725 mmHg 94%

    25 May, Friday

    Time Temperature Precipitation Wind Pressure Humidity
    00:00 +16°C° 0 mm 2 mps 725 mmHg 95%
    01:00 +15°C° 0 mm 2 mps 725 mmHg 96%
    02:00 +15°C° 0 mm 2 mps 725 mmHg 96%
    03:00 +15°C° 0 mm 2 mps 725 mmHg 96%
    04:00 +15°C° 0 mm 2 mps 725 mmHg 96%
    05:00 +16°C° 0 mm 2 mps 725 mmHg 93%
    06:00 +17°C° 0 mm 2 mps 726 mmHg 91%
    07:00 +18°C° 0 mm 2 mps 726 mmHg 88%
    08:00 +20°C° 0.1 mm 3 mps 726 mmHg 80%
    09:00 +21°C° 0.1 mm 3 mps 726 mmHg 73%
    10:00 +24°C° 0.1 mm 3 mps 726 mmHg 65%
    11:00 +23°C° 0.5 mm 4 mps 726 mmHg 65%
    12:00 +25°C° 0.5 mm 4 mps 726 mmHg 65%
    13:00 +25°C° 0.5 mm 4 mps 726 mmHg 64%
    14:00 +25°C° 1 mm 4 mps 726 mmHg 67%
    15:00 +25°C° 1 mm 4 mps 726 mmHg 70%
    16:00 +23°C° 1 mm 4 mps 726 mmHg 72%
    17:00 +22°C° 0.5 mm 3 mps 726 mmHg 76%
    18:00 +21°C° 0.5 mm 3 mps 726 mmHg 80%
    19:00 +19°C° 0.5 mm 3 mps 726 mmHg 84%
    20:00 +18°C° 0.2 mm 3 mps 726 mmHg 86%
    21:00 +18°C° 0.2 mm 3 mps 726 mmHg 87%
    22:00 +17°C° 0.2 mm 2 mps 727 mmHg 89%
    23:00 +16°C° 0 mm 2 mps 727 mmHg 90%

    26 May, Saturday

    Time Temperature Precipitation Wind Pressure Humidity
    00:00 +16°C° 0 mm 2 mps 727 mmHg 91%
    01:00 +15°C° 0 mm 2 mps 727 mmHg 92%
    02:00 +15°C° 0 mm 2 mps 727 mmHg 92%
    03:00 +14°C° 0 mm 2 mps 727 mmHg 92%
    04:00 +14°C° 0 mm 2 mps 727 mmHg 93%
    05:00 +16°C° 0 mm 2 mps 728 mmHg 88%
    06:00 +17°C° 0 mm 2 mps 728 mmHg 84%
    07:00 +19°C° 0 mm 3 mps 728 mmHg 80%
    08:00 +20°C° 0 mm 3 mps 729 mmHg 71%
    09:00 +22°C° 0 mm 4 mps 729 mmHg 61%
    10:00 +25°C° 0 mm 4 mps 729 mmHg 52%
    11:00 +26°C° 0.1 mm 4 mps 729 mmHg 52%
    12:00 +26°C° 0.1 mm 4 mps 729 mmHg 51%
    13:00 +27°C° 0.1 mm 4 mps 729 mmHg 50%
    14:00 +26°C° 0.3 mm 4 mps 729 mmHg 55%
    15:00 +25°C° 0.3 mm 3 mps 729 mmHg 59%
    16:00 +24°C° 0.3 mm 3 mps 729 mmHg 64%
    17:00 +22°C° 0.2 mm 3 mps 729 mmHg 69%
    18:00 +20°C° 0.2 mm 3 mps 729 mmHg 73%
    19:00 +19°C° 0.2 mm 2 mps 729 mmHg 78%
    20:00 +18°C° 0 mm 2 mps 729 mmHg 81%
    21:00 +17°C° 0 mm 2 mps 729 mmHg 83%
    22:00 +16°C° 0 mm 2 mps 730 mmHg 86%
    23:00 +15°C° 0 mm 2 mps 729 mmHg 87%
    Show more